User: anonymous
Location: Montr�al
(45.5000°N, 73.5830°W)
Time: 11:42:49
(UTC-04:00)
Language:

Cosmos 2369 - Orbit

View from above orbital plane
View from above orbital plane
View from above satellite
View from above satellite

Ground track
Ground track

The orbit data is extracted from the following two-line orbital elements,

1 26069U 00006A   14233.51311819 -.00000303  00000-0 -13648-3 0  3224
2 26069 070.9985 358.0396 0013136 339.6348 090.0053 14.13245596750501
Epoch (UTC): 21 August 2014 12:18:53
Eccentricity: 0.0013136
inclination: 70.9985°
perigee height: 839 km
apogee height: 858 km
right ascension of ascending node: 358.0396°
argument of perigee: 339.6348°
revolutions per day: 14.13245596
mean anomaly at epoch: 90.0053°
orbit number at epoch: 75050

The dashed part of the orbit path shows where the satellite is in the earth's shadow,  

DLR